{"data":{"norad_id":66054,"intl_designator":"2025-234B","name":"2025-234B","alt_names":[],"object_type":"PAYLOAD","status":"ACTIVE","operator":null,"country":"PAKI","launch_date":"2025-10-19","launch_site_code":"JSC","launch_vehicle":null,"mission":null,"orbit_class":"UNKNOWN","rcs_meters":null,"size_class":null,"mass_kg":null,"dimensions":null,"purposes":[],"wikipedia_slug":null,"has_3d_model":false,"image_url":null,"decayed_at":null,"tle_current":{"epoch":"2026-05-25T02:30:25.915968Z","epoch_age_seconds":59920,"freshness":"FRESH","line1":"1 66054U 25234B   26145.10446662  .00004657  00000+0  21426-3 0  9993","line2":"2 66054  97.4768 214.5144 0011687 166.7145 193.4400 15.20767763 33133","mean_motion":15.20767763,"eccentricity":0.0011687,"inclination_deg":97.4768,"raan_deg":214.5144,"arg_perigee_deg":166.7145,"mean_anomaly_deg":193.44,"bstar":0.00021426,"rev_number":3313,"period_min":94.689013999043,"perigee_km":495.48089448756,"apogee_km":511.56608771947,"semimajor_km":6881.6604911035,"source":"CELESTRAK","updated_at":"2026-05-25T13:38:05.924329Z"}}}